Theta_e
310 310 310 310 310 310 310 310 310 310 310 310 311 311 311 312 312 312 313 313 313 312 315 316 316 316 316 320 319 319 321 321 321 320 319 319 319 318 318 317 318 318 318 318 318
310 310 311 311 312 312 312 312 312 312 311 311 311 311 311 311 312 312 313 313 313 312 313 316 318 317 320 320 320 320 322 321 321 319 319 318 318 318 318 318 318 319 319 319 318
311 312 312 312 312 312 312 312 312 312 312 312 312 312 312 312 313 314 313 313 313 313 314 317 317 318 319 320 321 321 321 320 320 319 318 318 317 317 318 318 318 318 318 318 318
312 312 312 312 311 312 312 313 313 313 313 313 312 312 312 312 316 312 315 314 313 313 314 315 317 318 319 320 319 321 319 319 319 319 318 318 317 318 317 317 317 317 317 317 317
311 311 312 313 315 316 317 318 318 318 318 317 316 314 312 313 314 314 313 313 313 313 315 316 317 317 318 318 318 319 319 318 318 318 318 317 317 317 317 317 317 317 317 317 317
313 315 316 316 316 316 316 316 316 316 317 317 317 316 314 314 314 313 313 313 312 313 315 316 316 317 317 317 317 317 317 317 316 316 316 316 317 316 316 316 316 316 316 316 316
316 316 316 316 316 316 316 316 316 315 315 314 314 314 314 316 317 314 313 313 313 312 316 316 315 315 316 317 317 315 316 317 317 317 317 315 316 317 317 317 316 315 315 315 315
317 317 318 319 320 320 320 319 319 318 317 315 312 311 314 315 316 315 312 311 312 313 314 314 314 315 315 315 315 316 316 317 318 316 315 315 316 317 316 315 315 315 315 315 315
319 320 321 322 323 323 323 323 323 322 321 316 311 310 315 313 313 313 311 310 310 312 313 313 313 315 315 316 317 318 318 319 318 317 316 315 316 316 315 315 315 315 315 315 315
322 323 323 323 323 324 324 324 323 321 317 313 310 311 312 312 312 312 311 309 311 312 312 313 314 315 316 316 319 320 320 319 318 319 316 317 317 317 316 316 316 316 316 316 316
326 325 324 324 323 323 323 324 322 320 318 316 318 314 317 315 313 311 311 310 312 313 315 314 315 316 318 318 318 317 317 318 318 318 318 317 316 316 317 317 317 317 317 316 314
324 324 324 324 323 323 323 321 321 319 318 321 323 321 318 315 313 311 311 312 313 315 314 314 315 317 317 315 316 316 317 317 317 318 314 316 317 316 317 317 317 316 315 314 312
323 323 323 323 323 322 322 321 321 319 315 320 316 314 313 314 315 315 311 313 314 315 315 317 319 316 315 316 316 316 316 316 317 316 316 317 318 320 319 319 318 314 313 311 309
323 323 323 323 322 322 321 321 320 316 321 321 315 311 309 310 313 309 310 312 314 317 318 317 316 314 314 314 315 316 317 315 315 316 319 316 319 318 319 319 315 312 312 309 307
322 322 322 322 323 322 321 321 320 316 324 318 311 310 309 310 309 309 309 310 314 315 314 316 314 313 315 315 315 316 312 313 314 316 317 318 319 319 318 318 316 312 309 308 306
320 320 321 322 321 321 320 321 319 322 325 321 311 312 312 310 310 309 310 309 309 312 313 314 309 311 314 313 312 311 312 314 315 317 320 319 318 318 316 315 312 310 308 306 305
319 319 320 320 321 320 321 320 325 326 321 321 315 311 312 312 312 311 313 313 316 318 319 318 316 312 310 313 311 311 313 320 322 323 324 319 316 317 317 315 313 310 306 305 304
317 316 316 317 317 319 318 321 325 320 321 318 318 318 320 318 316 314 315 318 317 314 318 319 319 316 311 313 316 316 317 321 322 323 323 319 319 318 313 310 308 307 305 303 302
314 314 314 316 315 316 317 320 321 319 318 319 318 319 319 318 316 318 318 317 317 316 317 318 318 317 311 312 312 315 315 314 317 317 319 318 316 316 314 310 307 304 302 301 300
312 310 310 311 313 316 317 317 317 315 317 318 319 318 319 319 318 318 317 315 316 311 311 315 316 315 313 310 313 313 315 319 316 319 318 315 314 315 315 313 307 304 301 300 299
311 310 311 308 310 314 314 314 313 313 315 317 318 318 317 316 317 318 317 316 314 314 311 313 315 315 314 314 314 313 312 312 312 313 316 317 316 312 312 310 306 301 299 298 297
305 308 306 309 312 312 314 312 311 313 313 314 314 315 316 315 315 315 316 314 314 313 314 313 313 314 313 312 313 314 314 314 316 317 314 314 315 313 307 304 301 299 297 296 295
306 307 307 311 312 313 311 311 311 312 312 313 314 313 313 313 314 313 312 311 312 311 313 312 313 313 312 309 312 314 313 314 315 314 316 316 315 308 303 302 300 300 298 296 293
304 306 307 310 310 311 311 311 311 310 311 311 311 310 311 311 311 310 310 310 310 310 309 310 309 311 312 309 310 311 312 312 312 313 313 313 311 309 309 306 303 301 297 296 293
301 303 305 308 309 310 309 308 308 309 308 308 308 309 308 308 308 308 307 307 307 307 307 307 309 307 307 307 307 308 307 307 307 308 309 308 308 307 306 305 301 297 294 294 292
300 301 301 305 306 308 307 307 307 306 306 306 306 306 307 307 306 304 304 304 304 303 304 304 305 304 303 303 303 304 304 305 306 306 306 305 304 304 298 296 295 294 292 292 293
296 296 300 301 303 306 308 307 305 305 303 302 303 303 303 303 302 301 300 301 302 302 301 300 301 302 301 301 301 301 301 301 303 303 303 302 301 295 297 295 294 293 291 291 291
Wind_Speed
4 5 5 5 6 7 7 7 7 7 7 8 9 10 10 12 13 14 15 12 10 8 8 6 6 4 3 4 3 2 5 7 8 7 3 5 6 2 8 14 17 12 15 15 20
5 6 6 7 8 8 9 9 10 10 10 10 11 12 12 13 16 18 9 4 3 4 8 7 7 6 5 4 4 6 8 9 5 9 9 12 12 13 12 16 21 19 19 14 16
8 9 9 10 10 11 11 12 12 13 13 12 12 13 13 14 15 2 3 3 2 0 7 9 6 6 8 6 7 5 9 12 13 15 15 14 17 19 16 17 18 18 18 19 19
11 11 11 11 12 12 13 13 13 14 14 14 14 14 13 10 6 2 5 4 5 5 9 10 8 6 7 9 9 9 16 16 19 12 8 17 21 17 18 27 26 27 26 23 21
11 11 12 12 12 12 13 14 14 14 15 14 13 14 12 5 10 15 15 15 13 9 10 9 10 10 10 7 8 14 15 18 17 18 17 20 26 22 28 30 29 26 23 22 23
11 11 11 11 11 12 14 14 15 15 16 15 14 13 10 11 13 11 9 9 9 9 11 12 6 10 14 13 12 12 12 19 22 20 19 18 24 20 29 21 21 19 23 23 22
11 11 10 9 9 11 13 14 14 14 14 14 13 13 14 16 14 13 13 12 11 11 11 12 10 7 5 10 6 10 12 16 23 23 11 7 14 13 18 14 16 22 24 27 26
9 8 8 8 8 11 13 14 14 15 14 13 11 10 9 12 12 14 16 15 12 14 14 13 13 10 9 4 7 8 11 10 9 2 3 6 15 15 9 17 29 31 33 27 27
8 8 7 8 10 11 13 14 15 14 13 11 7 7 7 8 7 9 11 9 11 13 13 11 8 9 7 8 11 13 12 16 13 10 4 11 12 18 30 28 33 34 28 25 25
9 8 8 9 10 11 13 14 14 12 9 5 4 4 9 3 5 7 6 8 6 8 5 5 7 8 9 11 13 16 18 17 18 19 12 15 22 18 26 27 33 31 25 18 14
11 11 10 10 10 12 12 10 7 5 3 6 6 11 10 15 12 9 7 9 7 8 6 10 8 10 16 16 19 20 20 21 20 19 20 18 17 19 24 30 25 20 14 10 9
15 14 14 12 10 11 9 2 4 5 10 15 20 22 22 16 5 8 8 8 8 10 7 5 12 16 16 8 13 16 19 20 19 13 2 14 19 21 18 23 18 12 9 12 11
16 15 13 13 10 10 6 5 7 7 7 9 12 7 6 10 9 9 12 6 9 11 13 17 14 4 10 14 16 17 17 19 19 17 13 13 15 14 10 20 13 3 17 16 16
17 16 12 10 10 4 4 7 7 8 6 4 4 2 2 3 4 5 13 5 6 9 14 12 10 8 11 15 14 16 13 9 11 7 11 7 11 12 13 8 14 16 15 15 16
16 14 13 12 6 4 6 5 6 4 7 3 3 2 2 2 1 2 6 3 10 5 4 1 5 3 8 8 5 8 3 7 8 11 13 11 13 9 16 11 7 13 11 14 14
13 12 11 10 11 8 4 3 4 5 8 1 2 1 2 3 2 2 0 2 2 5 9 17 2 3 9 1 7 3 7 12 11 8 10 7 7 4 4 2 7 10 12 11 11
10 8 10 10 7 5 4 1 4 6 2 3 3 2 3 0 2 3 4 5 4 5 7 5 9 4 3 7 5 5 8 8 9 10 18 12 7 12 13 3 7 10 9 9 10
10 10 10 10 10 9 6 2 9 2 7 3 2 2 4 4 2 1 4 9 8 5 10 13 18 5 8 4 8 12 10 8 13 16 16 15 11 11 5 12 12 12 11 9 10
10 9 10 11 12 11 7 5 5 9 7 7 6 8 15 5 4 4 8 9 5 5 7 10 12 7 3 2 2 3 6 6 6 8 9 14 21 24 13 12 11 11 10 8 8
13 9 12 13 12 12 6 6 10 9 1 3 12 9 10 8 7 6 5 3 0 1 1 3 12 4 3 1 8 8 6 5 5 5 14 17 23 16 16 9 8 7 7 8 10
11 5 8 16 14 10 5 7 9 11 3 5 10 14 12 10 8 6 5 5 8 3 1 3 4 17 9 9 14 9 8 10 12 9 12 17 13 8 9 7 7 6 5 7 9
10 4 10 23 12 9 12 6 6 8 5 8 8 13 16 14 14 15 16 13 4 6 8 9 5 10 22 19 17 13 18 18 7 5 10 12 14 14 6 3 4 4 1 2 4
7 7 14 28 8 11 10 10 15 7 8 7 8 9 8 6 6 11 12 2 3 2 3 4 3 5 9 13 5 5 9 10 13 5 18 15 12 7 5 2 3 6 7 4 1
9 5 7 21 16 12 17 17 15 10 16 18 9 10 10 12 11 8 8 1 4 3 1 1 7 13 13 17 18 14 13 7 6 5 9 11 21 24 14 11 7 11 7 8 5
9 5 9 7 12 16 12 4 15 16 9 7 8 16 15 12 13 16 13 11 5 4 2 4 11 15 18 21 22 20 20 25 25 25 23 26 23 22 21 17 15 10 4 6 6
5 4 3 3 16 19 16 13 16 11 8 10 12 9 10 11 9 5 9 10 13 10 12 9 11 12 17 20 20 22 25 26 23 24 25 25 27 22 9 4 2 3 5 9 10
11 8 4 6 7 9 14 17 11 16 5 5 7 6 8 9 4 1 4 7 10 7 7 8 6 7 19 15 17 16 22 23 24 24 24 23 13 8 5 3 5 8 8 10 12
Wind_Direction
314 323 327 330 330 329 330 330 325 322 320 318 317 316 318 317 315 309 300 283 270 247 226 218 217 212 196 238 221 250 255 265 275 281 318 143 286 235 282 274 278 260 272 288 294
292 301 310 315 318 318 318 317 315 315 315 315 314 314 315 318 317 308 298 263 226 215 216 212 199 199 222 235 224 233 252 281 290 293 286 304 292 284 281 275 279 280 277 280 279
291 298 303 306 307 309 310 310 309 309 308 308 309 311 314 324 325 264 138 117 97 96 211 202 210 206 246 253 227 225 255 282 289 283 293 290 287 282 263 274 277 294 292 293 284
288 292 294 297 301 304 304 302 302 303 303 303 304 303 305 315 304 278 236 251 279 262 221 208 197 215 248 230 239 257 253 269 281 291 282 278 288 280 266 272 284 285 288 286 277
280 284 287 291 295 296 296 298 298 298 296 296 296 295 299 267 254 266 269 273 275 253 212 203 220 243 257 268 273 247 269 278 278 274 269 282 275 276 278 284 283 284 285 280 276
274 279 285 291 297 297 298 299 300 299 296 293 290 286 281 254 260 274 267 259 248 232 220 213 224 249 284 278 257 316 295 282 278 275 273 268 277 288 278 282 291 290 290 288 282
264 268 278 288 295 299 299 303 303 300 296 292 286 278 267 258 263 258 259 250 241 229 223 222 231 227 309 262 267 285 296 296 281 271 241 262 275 239 282 296 284 286 290 289 288
254 266 280 295 303 307 310 312 310 308 303 294 278 268 258 258 258 256 258 257 243 234 222 229 235 243 245 280 261 270 274 278 289 79 170 201 278 300 329 306 291 287 288 291 293
251 264 281 296 303 310 314 318 315 310 303 297 274 231 267 273 265 263 251 241 237 229 228 239 213 234 224 243 271 242 268 281 301 312 136 208 282 298 298 294 283 285 290 298 298
247 257 271 287 301 310 314 320 317 306 295 299 250 223 246 254 273 277 254 210 192 182 161 178 206 231 231 241 254 284 292 290 296 298 227 273 288 288 290 285 280 287 296 296 310
240 254 266 283 302 319 319 339 326 293 298 254 277 269 282 272 277 263 226 175 147 182 213 195 218 221 247 242 255 276 285 283 283 292 297 295 296 296 287 289 284 289 303 316 43
245 256 271 280 303 321 332 357 306 286 298 272 266 253 250 250 253 242 187 182 196 219 165 188 236 251 267 300 286 280 280 281 288 288 302 285 299 289 286 271 293 309 332 74 63
254 264 281 293 304 316 335 330 324 322 258 266 241 249 239 250 247 228 181 200 216 229 214 246 265 324 267 252 262 269 272 280 284 309 284 293 283 302 274 271 289 9 100 73 54
251 260 268 281 311 290 322 332 336 337 272 193 176 194 220 195 226 225 197 223 217 261 250 260 272 249 247 253 259 272 275 288 282 283 296 20 299 310 285 253 107 81 67 62 56
249 253 256 258 245 287 281 303 331 333 284 60 133 172 171 223 61 36 197 221 254 234 231 335 159 190 225 238 220 265 335 276 271 271 286 260 271 273 282 261 138 87 66 58 55
245 246 240 240 245 257 257 279 311 231 243 93 68 72 186 175 100 95 301 235 255 250 237 262 90 230 248 266 224 353 283 263 258 265 264 283 254 300 32 85 118 95 72 65 59
229 226 222 223 202 171 141 111 238 229 110 103 37 339 315 57 182 210 179 204 274 295 267 289 253 187 257 266 212 225 261 294 276 257 266 289 279 259 302 285 146 132 107 81 69
208 200 200 197 165 152 165 208 230 313 255 125 111 323 302 11 128 202 260 265 220 252 289 290 294 195 154 248 304 292 271 269 286 281 290 313 276 268 61 109 105 110 107 86 61
200 196 199 196 193 177 165 214 211 214 213 234 248 278 273 173 240 302 270 296 321 299 270 307 271 328 228 262 285 56 244 346 327 295 283 268 271 278 203 129 120 121 111 86 66
213 209 224 222 209 192 211 238 228 244 299 251 234 222 234 207 250 254 276 81 63 357 66 327 297 269 79 267 242 238 309 295 219 262 270 272 285 279 280 171 141 107 77 52 41
212 205 219 208 198 199 224 231 269 237 225 237 255 262 258 260 224 201 240 261 277 247 347 6 236 276 298 259 268 260 253 230 263 259 269 272 265 338 360 123 143 114 76 47 32
179 211 193 176 180 213 231 229 230 212 207 250 269 261 265 270 267 255 248 250 180 347 283 290 270 261 277 288 295 281 266 268 259 237 238 264 264 319 19 68 104 121 94 359 19
191 206 178 175 211 224 232 239 238 216 214 202 226 230 225 241 246 252 257 323 2 340 301 46 219 287 292 288 181 244 288 283 282 294 259 274 282 52 81 312 278 276 279 251 255
171 176 175 205 228 240 226 234 227 222 236 239 243 246 245 243 242 259 249 185 23 309 93 318 258 248 256 277 303 290 287 281 255 265 285 268 288 289 260 241 226 248 241 262 247
184 199 185 195 220 222 237 244 231 222 221 222 235 239 240 248 247 247 261 267 255 211 231 249 257 265 265 270 279 284 282 276 271 272 271 282 288 289 295 291 304 314 308 276 263
204 182 204 218 217 212 213 226 231 212 182 215 232 198 193 226 216 261 301 280 268 269 247 259 273 286 278 274 273 274 270 268 274 276 276 278 277 281 1 35 260 250 275 288 268
212 193 168 172 189 204 215 224 229 228 199 247 247 218 226 259 306 318 255 263 268 270 268 270 263 262 266 280 288 272 258 267 266 264 268 272 303 355 334 292 299 289 281 303 287